Content
SEND FEEDBACK

Daily
Averages
Monthly
Summary
United States of America

SOLEDAD, CALIFORNIA


Home > North America > United States > California
Elevation: 200 feet     Latitude: 36 26N     Longitude: 121 19W

WEATHER
 
SELECT A DAY
Number of Records: 199,390;   Date Range: 1/1/95 - 7/26/14
 
SHARE

PRINT THIS DATA

[ ← Previous Day ]
WEATHER ALMANAC - FEBRUARY 14, 2013
[ Next Day → ]
[ °C ]   °F
Weather ElementAverageHighLow
Temperature49.6 °F71.1 °F (1:53 pm)37.9 °F (5:53 am)
Dewpoint41.5 °F46.9 °F (3:53 pm)37 °F (5:53 am)
Humidity78.2 %100 % (2:42 am)31 % (1:53 pm)
Barometer30.22 in30.27 in (12:53 am)30.15 in (3:53 pm)
Wind Speed5.7 mph12.7 mph (11:53 pm)
Weather ElementAverage
Visibility7 mi
Wind DirectionESE (116 °)

Weather ElementTotal
Precipitation0.04 in
Heating Degree Days10.5 (Base 65)
Growing Degree Days4.5 (Base 50)
Averaged from 30 records on February 14, 2013
WEATHER CONDITIONS BREAKOUT
WIND DIRECTION BREAKOUT
WEATHER BY HOUR - FEBRUARY 14, 2013
[ °C ]   °F
Local TimeTemperatureDewpointHumidityBarometerVisibilityWind DirectionWind SpeedGust SpeedPrecipitationEventsConditions
12:53 AM43.0 °F42.1 °F97 %30.27 in0.2 miENE (70°)3.5 mphFogFog
1:53 AM42.1 °F41.0 °F96 %30.27 in0.5 miESE (110°)5.8 mphFogFog
2:12 AM42.8 °F41.0 °F93 %30.23 in0.2 miESE (110°)6.9 mphFogFog
2:42 AM42.8 °F42.8 °F100 %30.23 in0.2 miESE (120°)4.6 mphFogFog
2:53 AM42.1 °F42.1 °F100 %30.25 in0.2 miESE (110°)5.8 mphFogFog
3:53 AM41.0 °F41.0 °F100 %30.24 in0.2 miEast (100°)5.8 mphFogFog
4:30 AM39.2 °F39.2 °F100 %30.21 in0.5 miENE (70°)5.8 mph0.01 inFogFog
4:37 AM39.2 °F39.2 °F100 %30.21 in2.0 miEast (90°)4.6 mph0.01 inOvercast
4:45 AM39.2 °F39.2 °F100 %30.21 in6.0 miEast (90°)4.6 mph0.01 inMostly Cloudy
4:53 AM39.0 °F39.0 °F100 %30.24 in7.0 miCalm0.01 inMostly Cloudy
5:00 AM39.2 °F37.4 °F93 %30.21 in7.0 miEast (100°)3.5 mphScattered Clouds
5:53 AM37.9 °F37.0 °F97 %30.25 in9.0 miESE (110°)5.8 mphClear
6:53 AM39.0 °F37.0 °F93 %30.25 in9.0 miEast (100°)6.9 mphClear
7:53 AM41.0 °F37.9 °F89 %30.25 in8.0 miEast (100°)6.9 mphClear
8:53 AM46.9 °F42.1 °F83 %30.26 in9.0 miESE (120°)9.2 mphClear
9:53 AM52.0 °F43.0 °F71 %30.26 in10.0 miEast (100°)6.9 mphClear
10:53 AM57.9 °F44.1 °F60 %30.25 in10.0 miESE (110°)5.8 mphClear
11:53 AM63.0 °F43.0 °F48 %30.22 in10.0 miEast (100°)8.1 mphClear
12:53 PM68.0 °F39.0 °F35 %30.19 in10.0 miEast (100°)6.9 mphClear
1:53 PM71.1 °F39.0 °F31 %30.17 in10.0 miNNE (20°)5.8 mphClear
2:53 PM71.1 °F39.0 °F31 %30.16 in10.0 miNW (310°)5.8 mphClear
3:53 PM68.0 °F46.9 °F47 %30.15 in10.0 miWest (280°)11.5 mphClear
4:53 PM62.1 °F46.0 °F56 %30.15 in10.0 miWest (270°)11.5 mphClear
5:53 PM57.0 °F46.0 °F67 %30.16 in10.0 miWest (260°)5.8 mphClear
6:53 PM55.0 °F46.0 °F72 %30.19 in10.0 miNorth (350°)3.5 mphClear
7:53 PM54.0 °F46.0 °F75 %30.20 in10.0 miCalmClear
8:53 PM50.0 °F43.0 °F77 %30.22 in10.0 miCalmClear
9:53 PM48.0 °F42.1 °F80 %30.23 in10.0 miCalmClear
10:53 PM46.9 °F42.1 °F83 %30.24 in10.0 miEast (90°)5.8 mphClear
11:53 PM50.0 °F41.0 °F71 %30.24 in10.0 miEast (90°)12.7 mphClear
Hourly data recorded from KSNS, located miles away from Soledad, California







STORIES FROM OUR PARTNERS